DAL1875 KLAX-MMSD

Flight info

Callsign DAL1875
Flight time N/A
Altitude 33000
Route PNDAH2 OTAYY DCT TIJ UT6 IMUSU UT25 LTO DCT ENEKO ENEKO1B
Aircraft B739/M-SDE2E3FGHIRWXY/LB1

Departure

Time N/A
Airport Los Angeles International Airport (KLAX)

Arrival

Time 2026-04-30 18:38
Airport Los Cabos International Airport (MMSD)
Time Latitude Longitude Altitude Speed Heading
2026-04-30 17:39 28.37692 -113.17115 30958 ft 475 kts 153°
2026-04-30 17:42 28.11482 -112.94402 30970 ft 478 kts 153°
2026-04-30 17:43 27.98282 -112.83020 30957 ft 481 kts 152°
2026-04-30 17:44 27.82255 -112.69218 30935 ft 483 kts 152°
2026-04-30 17:47 27.57971 -112.48463 30951 ft 486 kts 153°
2026-04-30 17:48 27.38846 -112.32182 30921 ft 492 kts 153°
2026-04-30 17:50 27.16258 -112.15549 32132 ft 482 kts 159°
2026-04-30 17:51 27.07707 -112.09690 32879 ft 477 kts 159°
2026-04-30 17:52 26.99194 -112.03841 32890 ft 473 kts 158°
2026-04-30 17:54 26.73712 -111.86382 32900 ft 480 kts 158°
2026-04-30 17:56 26.50939 -111.70823 32881 ft 478 kts 158°
2026-04-30 17:58 26.33843 -111.59194 32885 ft 478 kts 158°
2026-04-30 18:00 26.10799 -111.43588 32918 ft 484 kts 157°
2026-04-30 18:01 25.96860 -111.33026 32913 ft 497 kts 147°
2026-04-30 18:02 25.82199 -111.16363 32873 ft 505 kts 141°
2026-04-30 18:04 25.67705 -110.99386 32872 ft 504 kts 141°
2026-04-30 18:06 25.48276 -110.76739 32872 ft 505 kts 140°
2026-04-30 18:08 25.31263 -110.57004 32858 ft 507 kts 140°
2026-04-30 18:10 25.11781 -110.34506 32849 ft 504 kts 140°
2026-04-30 18:11 24.94840 -110.15035 32828 ft 504 kts 140°
2026-04-30 18:13 24.82860 -110.01289 32829 ft 477 kts 140°
2026-04-30 18:14 24.71263 -109.88068 32840 ft 480 kts 141°
2026-04-30 18:15 24.57727 -109.72661 31551 ft 481 kts 140°
2026-04-30 18:16 24.53018 -109.67320 29792 ft 489 kts 140°
2026-04-30 18:16 24.48253 -109.61918 28209 ft 491 kts 140°
2026-04-30 18:17 24.45869 -109.59212 27547 ft 490 kts 139°
2026-04-30 18:17 24.43490 -109.56512 26836 ft 489 kts 139°
2026-04-30 18:17 24.38788 -109.51223 25357 ft 476 kts 141°
2026-04-30 18:18 24.36335 -109.48842 24628 ft 463 kts 148°
2026-04-30 18:18 24.33623 -109.47027 23914 ft 445 kts 161°
2026-04-30 18:18 24.30739 -109.45899 23215 ft 431 kts 168°
2026-04-30 18:18 24.27865 -109.45067 22528 ft 420 kts 173°
2026-04-30 18:19 24.24994 -109.44779 21862 ft 405 kts 186°
2026-04-30 18:19 24.22226 -109.45093 21225 ft 393 kts 193°
2026-04-30 18:19 24.19533 -109.45648 20589 ft 385 kts 195°
2026-04-30 18:19 24.16935 -109.46275 19982 ft 378 kts 196°
2026-04-30 18:20 24.14364 -109.46918 19340 ft 372 kts 196°
2026-04-30 18:20 24.11869 -109.47548 18718 ft 365 kts 196°
2026-04-30 18:20 24.09408 -109.48171 18133 ft 359 kts 195°
2026-04-30 18:20 24.06957 -109.48792 17573 ft 353 kts 195°
2026-04-30 18:21 24.04543 -109.49407 17068 ft 359 kts 195°
2026-04-30 18:21 24.02064 -109.50040 16479 ft 363 kts 195°
2026-04-30 18:21 23.99617 -109.50662 16173 ft 355 kts 195°
2026-04-30 18:21 23.97238 -109.51265 15957 ft 350 kts 195°
2026-04-30 18:22 23.94833 -109.51876 15672 ft 354 kts 195°
2026-04-30 18:22 23.89964 -109.52642 14999 ft 349 kts 184°
2026-04-30 18:22 23.87516 -109.52524 14972 ft 351 kts 179°
2026-04-30 18:23 23.85042 -109.52256 14945 ft 358 kts 177°
2026-04-30 18:23 23.82547 -109.51952 14929 ft 361 kts 177°
2026-04-30 18:23 23.80052 -109.51645 14940 ft 360 kts 177°
2026-04-30 18:23 23.77581 -109.51344 14935 ft 358 kts 177°
2026-04-30 18:24 23.72581 -109.50741 14928 ft 359 kts 177°
2026-04-30 18:24 23.70050 -109.50436 14932 ft 361 kts 177°
2026-04-30 18:24 23.67563 -109.50138 14931 ft 359 kts 177°
2026-04-30 18:25 23.65048 -109.49835 14947 ft 359 kts 177°
2026-04-30 18:25 23.60073 -109.49239 14381 ft 360 kts 177°
2026-04-30 18:25 23.57570 -109.48940 13769 ft 361 kts 177°
2026-04-30 18:26 23.52511 -109.48334 12540 ft 364 kts 177°
2026-04-30 18:26 23.50003 -109.48178 12077 ft 357 kts 185°
2026-04-30 18:26 23.47586 -109.48529 11704 ft 343 kts 194°
2026-04-30 18:27 23.42998 -109.49728 10766 ft 327 kts 197°
2026-04-30 18:27 23.40839 -109.50299 10498 ft 314 kts 196°
2026-04-30 18:28 23.36746 -109.51347 10147 ft 286 kts 197°
2026-04-30 18:28 23.34847 -109.51827 9973 ft 274 kts 197°
2026-04-30 18:28 23.31152 -109.52765 9452 ft 267 kts 197°
2026-04-30 18:29 23.29333 -109.53226 9153 ft 275 kts 197°
2026-04-30 18:29 23.23685 -109.54645 8104 ft 273 kts 195°
2026-04-30 18:30 23.20057 -109.55553 7706 ft 265 kts 195°
2026-04-30 18:30 23.16352 -109.56485 6995 ft 274 kts 195°
2026-04-30 18:31 23.14483 -109.56953 6663 ft 274 kts 195°
2026-04-30 18:31 23.10743 -109.57889 5973 ft 275 kts 194°
2026-04-30 18:32 23.07002 -109.58824 5245 ft 276 kts 194°
2026-04-30 18:32 23.05113 -109.59296 4872 ft 276 kts 194°
2026-04-30 18:32 23.01375 -109.60232 4255 ft 273 kts 195°
2026-04-30 18:33 22.99641 -109.60958 4139 ft 257 kts 212°
2026-04-30 18:33 22.97862 -109.63938 3649 ft 236 kts 262°
2026-04-30 18:33 22.97665 -109.65679 3384 ft 229 kts 266°
2026-04-30 18:34 22.97599 -109.67343 3145 ft 209 kts 278°
2026-04-30 18:34 22.98872 -109.69689 2888 ft 167 kts 323°
2026-04-30 18:34 22.99906 -109.70288 2790 ft 167 kts 345°
2026-04-30 18:35 23.01049 -109.70463 2637 ft 166 kts 355°
2026-04-30 18:35 23.02179 -109.70590 2447 ft 156 kts 354°
2026-04-30 18:35 23.03213 -109.70711 2159 ft 148 kts 354°
2026-04-30 18:36 23.05284 -109.70943 1464 ft 147 kts 354°
2026-04-30 18:36 23.06301 -109.71059 1396 ft 150 kts 354°
2026-04-30 18:36 23.08457 -109.71306 1093 ft 158 kts 354°
2026-04-30 18:37 23.09548 -109.71418 1020 ft 156 kts 354°
2026-04-30 18:37 23.10626 -109.71552 936 ft 153 kts 354°
2026-04-30 18:37 23.11685 -109.71676 819 ft 150 kts 354°
2026-04-30 18:37 23.12730 -109.71791 611 ft 153 kts 354°
2026-04-30 18:38 23.13800 -109.71911 388 ft 156 kts 354°
2026-04-30 18:38 23.14826 -109.72028 362 ft 126 kts 353°
2026-04-30 18:38 23.15464 -109.72104 377 ft 60 kts 354°
2026-04-30 18:38 23.15740 -109.72128 382 ft 26 kts
2026-04-30 18:39 23.15863 -109.72103 383 ft 15 kts 22°
2026-04-30 18:39 23.15960 -109.72058 381 ft 14 kts 23°
2026-04-30 18:39 23.16036 -109.72018 379 ft 9 kts 36°
2026-04-30 18:39 23.16035 -109.71964 376 ft 8 kts 158°
2026-04-30 18:40 23.15976 -109.71955 374 ft 8 kts 173°
2026-04-30 18:40 23.15922 -109.71950 374 ft 7 kts 175°
2026-04-30 18:40 23.15871 -109.71937 373 ft 9 kts 143°
2026-04-30 18:40 23.15845 -109.71868 370 ft 10 kts 130°
2026-04-30 18:41 23.15792 -109.71851 368 ft 7 kts 164°
2026-04-30 18:41 23.15772 -109.71819 366 ft 5 kts 79°
2026-04-30 18:41 23.15776 -109.71788 364 ft 1 kts 82°
2026-04-30 18:41 23.15776 -109.71787 364 ft 0 kts 82°